Hourly Data Report for November 04, 2019

All times are specified in Local Standard Time (LST). Add 1 hour to adjust for Daylight Saving Time where and when it is observed.

SATURNA ISLAND CS
BRITISH COLUMBIA
Current Station Operator: ECCC - MSC

48°47'02.067" N
123°02'41.082" W
24.40 m
1017101
71473
WEZ

Download Data

Hourly Data (November 2019)
Hourly Data Report for November 4, 2019
TIME Temp Definition
°C
Dew Point Definition
°C
Rel Hum Definition
%
Wind Dir Definition
10's deg

Wind Spd Definition
km/h
Visibility Definition
km
Stn Press Definition
kPa
Hmdx Definition


Wind Chill Definition


Weather Definition


00:00 9.2 8.0 93 3 1   102.00     LegendNANA
01:00 9.0 8.0 94 6 9   102.01     LegendNANA
02:00 8.7 7.8 94 6 9   102.01     LegendNANA
03:00 8.6 7.8 95 36 4   102.01     LegendNANA
04:00 8.5 7.9 96 9 5   102.01     LegendNANA
05:00 8.4 7.7 95 8 5   101.99     LegendNANA
06:00 8.4 7.6 95 9 7   102.02     LegendNANA
07:00 7.9 7.1 95 9 7   102.03     LegendNANA
08:00 8.1 7.2 94 8 4   102.05     LegendNANA
09:00 8.4 7.0 91 1 6   102.07     LegendNANA
10:00 9.0 6.4 84 36 5   102.09     LegendNANA
11:00 9.4 5.9 79 36 5   102.08     LegendNANA
12:00 9.1 6.0 81 1 7   102.05     LegendNANA
13:00 9.5 6.1 80 36 5   102.01     LegendNANA
14:00 9.6 6.4 80 36 5   101.97     LegendNANA
15:00 9.3 6.3 82 33 2   101.97     LegendNANA
16:00 8.4 6.4 87 35 3   101.96     LegendNANA
17:00 8.3 7.1 92 21 7   101.96     LegendNANA
18:00 9.0 7.6 91 23 8   101.97     LegendNANA
19:00 9.3 7.9 91 24 8   101.97     LegendNANA
20:00 9.6 7.9 89   0   101.98     LegendNANA
21:00 9.6 8.1 90 22 8   101.99     LegendNANA
22:00 9.5 8.6 94 22 6   102.01     LegendNANA
23:00 9.7 8.9 95 20 10   102.00     LegendNANA

Notes on Data Quality.

Legend

  • E = Estimated
  • M = Missing
  • NA = Not Available
Date modified: